Вернуться в каталог

TITAN 3C TRANSTAGE DEB

АктивенLEO
NORAD 1668·DEBRIS·🇺🇸 United States

Запущен Oct 15, 1965 с Cape Canaveral Space Force Station

Loading…

Ближайшие Пролёты (ближайшие 24 часа)

TLE

СвежийSource: Space-Track

Эпоха: Sep 14, 2026, 22:22 UTC

1 01668U 65082AF  26257.93239047  .00001111  00000-0  12908-3 0  9998
2 01668  32.0689 347.0123 0014136 110.1196 250.0976 14.82763350231672

Отслеживайте TITAN 3C TRANSTAGE DEB в реальном времени с AllMySat

Download on the App Store